This demonstration page uses our WeatherBlox Daily Observations layout. Learn more.

Hourly Observations for December 28, 2017

Temp ( °F °C ) Dew Point ( °F °C ) Humidity (%) Winds ( mph kmh ) Pressure ( in mb ) Visibility ( mi km ) Precip ( " mm )
12:15 am 00:15 Mostly Cloudy 13 -10.7 8 -13.3 81 81 S 13 20 30.45 1031 10 16.09344 0 0
12:35 am 00:35 Cloudy 13 -10.4 8 -13.2 80 80 S 13 20 30.39 1029 10 16.09344 0 0
12:55 am 00:55 Cloudy 15 -9.6 9 -12.7 78 78 S 13 20 30.39 1029 10 16.09344 0 0
1:15 am 01:15 Cloudy 16 -9.1 10 -12.5 77 77 S 12 19 30.39 1029 10 16.09344 0 0
1:35 am 01:35 Cloudy 16 -8.8 10 -12.4 75 75 S 14 22 30.36 1028 10 16.09344 0 0
1:55 am 01:55 Cloudy 17 -8.6 10 -12.5 74 74 S 15 24 30.36 1028 10 16.09344 0 0
2:15 am 02:15 Partly Cloudy 17 -8.6 10 -12.3 75 75 S 13 20 30.36 1028 10 16.09344 0 0
2:35 am 02:35 Partly Cloudy 16 -8.7 10 -12.3 75 75 S 16 26 30.36 1028 10 16.09344 0 0
2:55 am 02:55 Clear 16 -9 9 -12.6 75 75 S 14 22 30.33 1027 10 16.09344 0 0
3:15 am 03:15 Partly Cloudy 16 -9 9 -12.6 75 75 S 13 20 30.36 1028 10 16.09344 0 0
3:35 am 03:35 Partly Cloudy 16 -9.1 9 -12.6 76 76 S 13 20 30.33 1027 10 16.09344 0 0
3:55 am 03:55 Clear 15 -9.4 9 -12.9 76 76 S 13 20 30.33 1027 10 16.09344 0 0
4:15 am 04:15 Clear 15 -9.7 8 -13.1 77 77 S 7 11 30.36 1028 10 16.09344 0 0
4:35 am 04:35 Clear 14 -10 8 -13.3 77 77 Calm 30.36 1028 10 16.09344 0 0
4:55 am 04:55 Clear 14 -10.2 8 -13.6 76 76 S 5 7 30.36 1028 10 16.09344 0 0
5:15 am 05:15 Clear 12 -11.3 6 -14.3 79 79 S 5 7 30.39 1029 10 16.09344 0 0
5:35 am 05:35 Clear 8 -13.2 4 -15.7 82 82 NNE 7 11 30.42 1030 10 16.09344 0 0
5:55 am 05:55 Clear 8 -13.5 4 -15.5 85 85 E 3 6 30.45 1031 10 16.09344 0 0
6:15 am 06:15 Clear 7 -13.7 4 -15.7 85 85 SE 8 13 30.42 1030 10 16.09344 0 0
6:35 am 06:35 Clear 7 -13.9 3 -15.9 85 85 SE 3 6 30.45 1031 10 16.09344 0 0
6:55 am 06:55 Clear 6 -14.7 2 -16.5 86 86 SE 3 6 30.45 1031 10 16.09344 0 0
7:15 am 07:15 Clear 7 -14.1 3 -16 86 86 Calm 30.45 1031 10 16.09344 0 0
7:35 am 07:35 Clear 6 -14.4 3 -16.1 87 87 Calm 30.45 1031 10 16.09344 0 0
7:55 am 07:55 Clear 5 -15.2 2 -16.5 90 90 NW 3 6 30.48 1032 10 16.09344 0 0
8:15 am 08:15 Sunny 4 -15.7 1 -17.2 88 88 N 6 9 30.48 1032 10 16.09344 0 0
8:35 am 08:35 Sunny 6 -14.6 3 -16.2 88 88 N 3 6 30.5 1033 10 16.09344 0 0
8:55 am 08:55 Partly Cloudy 7 -14.1 4 -15.8 87 87 Calm 30.5 1033 10 16.09344 0 0
9:15 am 09:15 Partly Cloudy 7 -14.1 3 -16.1 85 85 Calm 30.5 1033 10 16.09344 0 0
9:35 am 09:35 Sunny 10 -12.3 6 -14.7 82 82 Calm 30.5 1033 10 16.09344 0 0
9:55 am 09:55 Sunny 11 -11.9 7 -14.1 84 84 N 3 6 30.5 1033 10 16.09344 0 0
10:15 am 10:15 Sunny 13 -10.5 9 -13 82 82 Calm 30.5 1033 10 16.09344 0 0
10:35 am 10:35 Sunny 15 -9.6 10 -12.5 80 80 Calm 30.48 1032 10 16.09344 0 0
10:55 am 10:55 Sunny 16 -9 10 -12.3 77 77 NW 5 7 30.5 1033 10 16.09344 0 0
11:15 am 11:15 Sunny 15 -9.3 10 -12.3 79 79 NW 6 9 30.5 1033 10 16.09344 0 0
11:35 am 11:35 Sunny 15 -9.2 10 -12.2 79 79 WNW 6 9 30.53 1034 10 16.09344 0 0
11:55 am 11:55 Sunny 16 -8.8 11 -11.6 80 80 NW 8 13 30.53 1034 10 16.09344 0 0
12:15 pm 12:15 Sunny 18 -7.6 13 -10.6 79 79 NW 6 9 30.5 1033 10 16.09344 0 0
12:35 pm 12:35 Sunny 19 -7 14 -10.1 79 79 NW 6 9 30.5 1033 10 16.09344 0 0
12:55 pm 12:55 Sunny 20 -6.5 14 -10 76 76 NW 5 7 30.48 1032 10 16.09344 0 0
1:15 pm 13:15 Sunny 21 -5.9 14 -9.8 74 74 NNW 6 9 30.45 1031 10 16.09344 0 0
1:35 pm 13:35 Sunny 22 -5.4 15 -9.2 75 75 N 6 9 30.45 1031 10 16.09344 0 0
1:55 pm 13:55 Sunny 24 -4.5 16 -8.7 73 73 NNW 7 11 30.45 1031 10 16.09344 0 0
2:15 pm 14:15 Sunny 23 -5 17 -8.6 76 76 NNW 7 11 30.48 1032 10 16.09344 0 0
2:35 pm 14:35 Sunny 23 -4.8 17 -8.4 76 76 NNW 10 17 30.48 1032 10 16.09344 0 0
2:55 pm 14:55 Sunny 24 -4.7 17 -8.5 75 75 NNW 8 13 30.45 1031 10 16.09344 0 0
3:15 pm 15:15 Sunny 23 -4.8 17 -8.3 77 77 N 7 11 30.45 1031 10 16.09344 0 0
3:35 pm 15:35 Sunny 23 -5 17 -8.3 78 78 NNW 7 11 30.48 1032 10 16.09344 0 0
3:55 pm 15:55 Sunny 22 -5.3 17 -8.5 78 78 N 5 7 30.45 1031 10 16.09344 0 0
4:15 pm 16:15 Sunny 22 -5.5 17 -8.2 82 82 N 6 9 30.45 1031 10 16.09344 0 0
4:35 pm 16:35 Sunny 21 -6 17 -8.5 83 83 Calm 30.45 1031 10 16.09344 0 0
4:55 pm 16:55 Sunny 20 -6.6 16 -8.8 85 85 Calm 30.45 1031 10 16.09344 0 0
5:15 pm 17:15 Sunny 20 -6.8 16 -9 85 85 Calm 30.45 1031 10 16.09344 0 0
5:35 pm 17:35 Clear 20 -6.8 16 -8.7 87 87 SSW 5 7 30.45 1031 10 16.09344 0 0
5:55 pm 17:55 Clear 21 -6.3 17 -8.5 85 85 S 3 6 30.45 1031 10 16.09344 0 0
6:15 pm 18:15 Clear 20 -6.9 16 -8.7 87 87 Calm 30.48 1032 10 16.09344 0 0
6:35 pm 18:35 Clear 20 -6.6 17 -8.5 87 87 Calm 30.45 1031 10 16.09344 0 0
6:55 pm 18:55 Clear 20 -6.5 17 -8.4 87 87 Calm 30.48 1032 10 16.09344 0 0
7:15 pm 19:15 Partly Cloudy 20 -6.8 17 -8.5 88 88 Calm 30.5 1033 10 16.09344 0 0
7:35 pm 19:35 Partly Cloudy 19 -7 17 -8.5 89 89 Calm 30.5 1033 10 16.09344 0 0
7:55 pm 19:55 Clear 20 -6.7 17 -8.3 89 89 Calm 30.5 1033 10 16.09344 0 0
8:15 pm 20:15 Clear 20 -6.8 17 -8.3 89 89 Calm 30.5 1033 10 16.09344 0 0
8:35 pm 20:35 Clear 19 -7 17 -8.4 90 90 Calm 30.5 1033 10 16.09344 0 0
8:55 pm 20:55 Clear 19 -7 17 -8.1 92 92 NNE 6 9 30.5 1033 10 16.09344 0 0
9:15 pm 21:15 Clear 20 -6.7 17 -8.1 90 90 Calm 30.5 1033 10 16.09344 0 0
9:35 pm 21:35 Clear 20 -6.8 17 -8.1 91 91 Calm 30.5 1033 10 16.09344 0 0
9:55 pm 21:55 Clear 20 -6.8 18 -7.9 92 92 Calm 30.5 1033 10 16.09344 0 0
10:15 pm 22:15 Clear 19 -7 17 -8.1 92 92 E 3 6 30.48 1032 10 16.09344 0 0
10:35 pm 22:35 Clear 19 -7.1 17 -8.2 92 92 ESE 3 6 30.48 1032 10 16.09344 0 0
10:55 pm 22:55 Clear 18 -7.7 16 -8.7 93 93 E 6 9 30.48 1032 10 16.09344 0 0
11:15 pm 23:15 Clear 18 -7.7 16 -8.7 93 93 ESE 3 6 30.48 1032 10 16.09344 0 0
11:35 pm 23:35 Clear 17 -8.3 15 -9.3 93 93 SE 5 7 30.48 1032 10 16.09344 0 0
11:55 pm 23:55 Clear 17 -8.3 15 -9.5 91 91 SE 5 7 30.45 1031 10 16.09344 0 0

Powered by AerisWeather